FREGAT DEB, 46002

Orbit data source: Space-Track

FREGAT DEB, 46002 is space debris in LEO originally from a launch on Mon, 18 Jul 2011 UTC launched from the Tyuratam Missile And Space Complex (TTMTR). Debris objects in space refer to the collection of defunct objects orbiting the Earth. Examples of debris include non-operational satellites, rocket bodies, and fragments generated from explosions, collisions, or faulty payload assembly.

Loading next visibility...
Identifier
46002, 2011-037HD
Orbit
LEO
Country
Flag of CISCIS
Related business
Manufacturer
Lavochkin
Mission
Spacecraft
Bus & Motor
Unknown
Mass
Unknown
Launch date (UTC)
2011-07-18 (14 years ago)
Launch vehicle
Unknown
Launch site
Tyuratam Missile And Space Complex (TTMTR)
Object type
Payload
Rocket body
Debris
Shape & HBR
Unknown shape, 0.1 m
Radar Cross Section
Small (<0.1 m²)

Expand to show TLE details & history
Last TLE update: 15 hours ago

TLE from 15 hours ago
0 FREGAT DEB
1 46002U 11037HD  25292.76833884  .00058198  00000-0  64494-1 0  9990
2 46002  51.2013 106.7650 1525943  50.4766 322.1283 11.48773385200570
Epoch: 2025-10-19T18:26Z
TLE epoch observation values (Epoch: 2025-10-19T18:26:24.475Z)
Latitude
0.00002°
Longitude
161.68278°
Altitude
1,007.539 km
Speed
7.742 km/s
True Right ascension
07h 07m 03s
True Declination
0° 00' 00"
Sunlit
Object was in daylight at epoch
Visualization orbit readout
Latitude
Unknown
Longitude
Unknown
Altitude
Unknown
Speed
Unknown
Apparent Right ascension
Unknown
Apparent Declination
Unknown
Sunlit
N/A
Visualization observer readout
Local Sidereal Time
04:50:01
Azimuth
Unknown
Elevation
Unknown
Doppler factor
Unknown
Orbital elements
Apogee altitude
3,185.313 km
Perigee altitude
653.064 km
Semi-major axis
8,297.325 km
Eccentricity
0.15259
Inclination
51.2013°
RAAN
106.765°
Arg. of periapsis
50.4766°
True anomaly
309.60916°
Mean anomaly
322.1283°
Eccentric anomaly
316.06167°
Mean motion
2.87168 °/min
Orbital period
125.36 mins
BSTAR
0.064494
Loading maneuver chart data...
Computing Atmospheric mass density...
Loading historical data...
Loading historical data...
Loading historical data...
Loading historical data...
Loading historical data...
Loading historical data...
Loading historical data...

Documentation

Showing up to 5 results
|